www.pogodaiklimat.ru

Погода и климат >> Архив погоды >> Россия >> Кировская область >> Киров


АРХИВ ПОГОДЫ в Кирове

Время (UTC), дата Ветер
(напр.,м/с)
 
Видим.   Явления Облачность Т
(С)
Тd
(С)
f
(%)
Тe
(С)
Тes
(С)
Комфортность P
(гПа)
Po
(гПа)
Тmin
(С)
Tmax
(С)
R
(мм)
R24
(мм)
S
(см)
00 10.01 Ю 1-3
{3}
10 км слаб. снег 10/0
[As op]
-10.1 -10.7 95 -12 -12 по сезону 1019.3 998.5
03 10.01 ЮЗ 2-4
{4}
10 км слаб. снег 10/0
[As op]
-10.0 -10.6 95 -15 -15 по сезону 1018.8 998.0 -12.0 2 34
06 10.01 ЮЗ 3-7
{7}
10 км слаб. снег 10/8 600 м
[Sc As op]
-10.3 -10.9 95 -16 -16 по сезону 1019.3 998.5
09 10.01 ЮЗ 3-6
{8}
10 км слаб. ливневой снег 10/10 300 м
[Cb cap]
-11.8 -13.1 90 -18 -18 по сезону 1020.0 999.1
12 10.01 ЮЗ 2-5
{7}
4000 м слаб. ливневой снег 10/10 300 м
[Cb cap]
-12.2 -13.5 90 -17 -17 по сезону 1020.7 999.8
15 10.01 ЮЗ 2-5
{6}
10 км слаб. снег 10/8 600 м
[Sc As op]
-13.6 -15.6 85 -18 -18 по сезону 1021.2 1000.2 -9.9 0.3
18 10.01 ЮЗ 2-4
{5}
4000 м слаб. снег 10/0
[As op]
-13.4 -15.4 85 -18 -18 по сезону 1021.0 1000.0
21 10.01 ЮЗ 3-6
{6}
10 км слаб. снег 10/9 300 м
[Frnb As op]
-12.3 -13.6 90 -18 -18 по сезону 1020.4 999.5
00 11.01 ЮЗ 2-4
{6}
10 км снежные зёрна 10/10 200 м
[St]
-11.0 -12.3 90 -16 -16 по сезону 1019.8 999.0
03 11.01 Ю 1-3
{5}
4000 м слаб. снег 10/0
[As op]
-10.0 -11.3 90 -12 -12 по сезону 1018.0 997.3 -14.2 0.3 34
06 11.01 ЮЗ 2-5
{5}
10 км слаб. снег 10/0
[As op]
-8.8 -9.9 92 -13 -13 по сезону 1016.9 996.3
09 11.01 Ю 2-5
{5}
10 км слаб. снег 10/0
[As op]
-8.3 -9.3 92 -13 -13 по сезону 1015.2 994.7
12 11.01 Ю 2-5
{7}
10 км слаб. снег 10/8 600 м
[Sc As op]
-8.4 -10.3 86 -13 -13 по сезону 1013.5 993.0
15 11.01 Ю 3-5
{7}
10 км слаб. снег 10/6 600 м
[Sc As op]
-9.1 -10.6 89 -15 -15 по сезону 1011.4 991.0 -8.2 0.4
18 11.01 Ю 3-6
{8}
10 км слаб. снег {метель} 10/8 600 м
[Sc As op]
-8.8 -10.7 86 -15 -15 по сезону 1009.5 989.1
21 11.01 Ю 2-5
{7}
10 км слаб. снег 10/0
[As op]
-9.3 -11.4 85 -14 -14 по сезону 1007.8 987.4
00 12.01 Ю 3-6
{7}
10 км слаб. снег 10/0
[As op]
-9.2 -10.8 88 -15 -15 по сезону 1005.6 985.3
03 12.01 Ю 5-8
{9}
10 км слаб. снег {метель} 10/0
[As op]
-10.5 -12.5 85 -18 -18 по сезону 1003.2 982.8 -10.6 0.4 35
06 12.01 Ю 4-7
{9}
10 км слаб. снег {метель} 10/0
[Ac As]
-11.6 -13.6 85 -19 -19 по сезону 1001.5 981.1 -11.7
09 12.01 ЮВ 3-5
{8}
20 км слаб. снег {метель} 10/0
[Ac As]
-11.2 -14.0 80 -17 -17 по сезону 999.5 979.1
12 12.01 ЮВ 3-6
{7}
10 км слаб. снег {метель} 10/8 600 м
[Sc Ac As]
-10.8 -13.6 80 -17 -17 по сезону 998.0 977.6
15 12.01 Ю 4-6
{7}
10 км слаб. снег 10/5 600 м
[Sc As op]
-10.8 -12.8 85 -18 -18 по сезону 996.9 976.6 -10.5 0.2
18 12.01 Ю 3-4
{7}
10 км слаб. снег 10/6 600 м
[Sc As op]
-10.6 -12.6 85 -17 -17 по сезону 995.3 975.1
21 12.01 Ю 2-5
{6}
10 км слаб. снег 10/5 600 м
[Sc As op]
-11.0 -13.0 85 -16 -16 по сезону 994.1 973.8
00 13.01 Ю 2-3
{6}
10 км слаб. снег 10/5 600 м
[Sc As op]
-11.0 -13.0 85 -16 -16 по сезону 992.5 972.3
03 13.01 Ю 2-4
{5}
10 км слаб. снег 10/0
[As op]
-11.2 -13.2 85 -16 -16 по сезону 991.7 971.5 -11.3 0.3 35
06 13.01 Ю 2-4
{5}
20 км слаб. снег 10/0
[Ac As Cs]
-11.6 -13.6 85 -16 -16 по сезону 992.3 972.1 -11.6
09 13.01 Ю 2-7
{7}
20 км слаб. снег {метель} 8/0
[Ac As Cs]
-10.8 -13.6 80 -15 -15 по сезону 993.0 972.7
12 13.01 Ю 2-3
{7}
10 км слаб. ливневой снег 10/5 600 м
[Cb cap Ac As Cs]
-11.5 -13.5 85 -16 -16 по сезону 994.3 974.0
15 13.01 ЮЗ 2-4
{6}
20 км слаб. ливневой снег {метель} 8/5 600 м
[Cb cap Ac As Cs]
-13.0 -15.7 80 -18 -18 по сезону 995.7 975.2 -10.5 0.6
18 13.01 Ю 2-4
{5}
20 км слаб. снег 10/0
[Ac As]
-12.5 -14.5 85 -17 -17 по сезону 996.2 975.8
21 13.01 Ю 3-6
{7}
4000 м слаб. ливневой снег 10/10 300 м
[Cb cap]
-11.2 -13.5 83 -17 -17 по сезону 997.0 976.7
00 14.01 Ю 2-4
{6}
10 км слаб. ливневой снег 10/10 300 м
[Cb cap]
-10.6 -12.6 85 -15 -15 по сезону 997.8 977.5
03 14.01 Ю 3-5
{5}
10 км слаб. ливневой снег 10/10 300 м
[Cb cap]
-9.7 -11.8 85 -16 -16 по сезону 998.7 978.4 -13.3 0.5 37
06 14.01 Ю 2-4
{6}
10 км слаб. снег 10/8 600 м
[Sc Ac As]
-9.5 -11.6 85 -14 -14 по сезону 999.5 979.2
09 14.01 Ю 2-4
{5}
10 км слаб. снег 10/10 600 м
[Sc]
-8.1 -10.4 83 -13 -13 по сезону 1000.2 980.0
12 14.01 Ю 2-5
{6}
20 км {ливн. осадки, снег} 10/10 600 м
[Sc]
-7.6 -9.8 84 -12 -12 по сезону 1000.9 980.8
15 14.01 Ю 2-4
{5}
20 км 10/10 600 м
[Sc]
-8.1 -9.9 87 -13 -13 по сезону 1001.9 981.7 -7.4 0.0
18 14.01 Ю 3-6
{6}
10 км снежные зёрна 10/10 300 м
[St]
-8.8 -10.3 89 -15 -15 по сезону 1002.4 982.2
21 14.01 ЮВ 3-6
{7}
4000 м слаб. снег 10/0
[As op]
-8.6 -10.1 89 -14 -14 по сезону 1002.4 982.2
00 15.01 ЮВ 4-7
{7}
4000 м слаб. снег {метель} 10/0
[As op]
-8.8 -10.7 86 -16 -16 по сезону 1002.2 982.0
03 15.01 Ю 3-6
{8}
4000 м слаб. снег {метель} 10/0
[As op]
-7.8 -9.6 87 -14 -14 по сезону 1001.9 981.7 -8.9 1 35
06 15.01 Ю 4-8
{8}
10 км слаб. снег {метель} 10/0
[As op]
-6.7 -8.3 88 -13 -13 по сезону 1002.4 982.4
09 15.01 Ю 4-8
{9}
20 км позёмок {ливн. осадки, снег} 10/10 600 м
[Sc]
-6.3 -8.2 86 -13 -13 по сезону 1003.2 983.1
12 15.01 Ю 4-6
{8}
20 км позёмок {ливн. осадки, снег} 10/6 600 м
[Sc Ac As]
-6.2 -8.5 84 -13 -13 по сезону 1002.9 982.8
15 15.01 ЮВ 3-6
{8}
10 км слаб. снег {метель} 10/8 300 м
[Frnb As op]
-6.7 -8.7 86 -12 -12 по сезону 1002.9 982.8 -6.0 0.6
18 15.01 ЮВ 3-5
{7}
20 км {снег, метель} 10/10 300 м
[St]
-6.5 -8.5 86 -12 -12 по сезону 1002.3 982.3
21 15.01 ЮВ 3-5
{6}
10 км слаб. снег 10/8 300 м
[Frnb As op]
-5.9 -7.4 89 -12 -12 по сезону 1002.0 982.0
00 16.01 Ю 3-6
{6}
4000 м слаб. снег 10/8 300 м
[Frnb As op]
-4.4 -5.7 91 -10 -10 по сезону 1002.2 982.3
03 16.01 Ю 2-4
{6}
20 км {снег} 8/5 300 м
[Sc Ci fib]
-3.5 -4.3 94 -8 -8 тепло 1002.8 982.9 -6.9 0.7 35
06 16.01 ЮВ 3-4
{7}
20 км {снег} 10/8 600 м
[Sc Ac und]
-2.6 -3.2 96 -8 -8 тепло 1003.1 983.3
09 16.01 ЮВ 3-6
{6}
4000 м слаб. снег 10/9 300 м
[Frnb As op]
-1.5 -2.0 96 -7 -7 тепло 1001.1 981.4
12 16.01 ЮВ 5-9
{9}
4000 м слаб. снег {метель} 10/9 200 м
[Frnb As op]
-1.5 -2.0 96 -8 -8 тепло 998.0 978.3
15 16.01 ЮВ 4-7
{9}
1000 м снег {метель} 10/10 200 м
[Frnb Ns]
-1.8 -2.3 96 -8 -8 тепло 995.0 975.4 -1.4 6
18 16.01 Ю 5-8
{12}
1000 м снег {метель} 10/10 200 м
[Frnb Ns]
-2.3 -3.2 94 -9 -9 тепло 992.9 973.3

 

Местоположение метеостанции Киров (Кировская область, Россия): широта 58.60 долгота 49.63 высота над уровнем моря 158 м.

В архиве по умолчанию представлена погода в Кирове за последнюю неделю. Архивные данные за месяц целиком и за предыдущие месяцы, начиная с января 2011 года, Вы можете получить, выбрав интересующий диапазон дат из раскрывающегося списка и нажав кнопку "Ввод!".


*Определитесь, кто Вы:
робот инопланетянин человек

Внимание! Время в таблицах - всемирное. Для получения местного времени необходимо прибавить поправку, которая равна 3 ч.

Смотрите также архив погоды в соседних городах и на ближайших метеорологических станциях:

Погода в Кумене (Кировская область, Россия) (58 км)
Погода в Белой Холунице (Кировская область, Россия) (75 км)
Погода в Котельниче (Кировская область, Россия) (82 км)
Погода в Даровском (Кировская область, Россия) (98 км)
Погода в Нагорске (Кировская область, Россия) (106 км)
Погода в Фаленках (Кировская область, Россия) (116 км)
Погода в Нолинске (Кировская область, Россия) (118 км)
Погода в Уни (Кировская область, Россия) (145 км)
Погода в Шабалино (Кировская область, Россия) (150 км)
Погода в Опарино (Кировская область, Россия) (159 км)

Пояснения к столбцам:

Ветер - указаны скорость ветра в м/с - средняя за 10 мин, порывы в срок и между сроками (в фигурных скобках) и направление, откуда дует ветер: С - северный, СВ - северо-восточный, В - восточный, ЮВ - юго-восточный, Ю - южный, ЮЗ - юго-западный, З - западный, СЗ - северо-западный.
Видимость - горизонтальная дальность видимости в метрах или километрах. При видимости от 1 до 10 км при отсутствии осадков обычно наблюдается дымка, при ухудшении видимости до 1 км и менее - туман. В сухую погоду видимость может ухудшаться дымом, пылью или мглою.
Явления - указаны атмосферные явления, наблюдавшиеся в срок или в последний час перед сроком; фигурными скобками обозначены явления, наблюдавшиеся между сроками (за 1-3 часа до срока); квадратными скобками обозначены град или гололедные отложения с указанием их диаметра в мм.
Облачность - указаны через наклонную черту общая и нижняя облачность в баллах и высота нижней границы облаков в метрах; квадратными скобками обозначены формы облаков: Ci - перистые, Cs - перисто-слоистые, Cc - перисто-кучевые, Ac - высококучевые, As - высокослоистые, Sc - слоисто-кучевые, Ns - слоисто-дождевые, Cu - кучевые, Cb - кучево-дождевые. Подробнее классификацию облаков см. в Атласе облаков (PDF).
T - Температура воздуха - температура, измеренная на высоте 2 м над землей.
Td - Температура точки росы - температура, при понижении до которой содержащийся в воздухе водяной пар достигнет насыщения.
f - Относительная влажность воздуха - влажноcть воздуха, измеренная на высоте 2 м над землей.
Te - Эффективная температура - температура, которую ощущает одетый по сезону человек в тени. Характеристика душности погоды. При расчете учитывается влияние влажности воздуха и скорости ветра на теплоощущения человека.
Tes - Эффективная температура на солнце - температура, которую ощущает человек, с поправкой на солнечный нагрев. Характеристика знойности погоды. Зависит от высоты солнца над горизонтом, облачности и скорости ветра. Ночью, в пасмурную погоду, а также при ветре 12 м/с и более поправка равна нулю.
P - Атмосферное давление - приведенное к уровню моря атмосферное давление.
Po - Атмосферное давление - измеренное на уровне метеостанции атмосферное давление.
Tmin - Минимальная температура - минимум температуры воздуха на высоте 2 м над землей.
Tmax - Максимальная температура - максимум температуры воздуха на высоте 2 м над землей.
R - Количество осадков - Количество выпавших осадков за период времени, мм. При наведении курсора мыши на число - период времени, за который выпало указанное количество осадков.
R24 - Количество осадков - Количество выпавших осадков за 24 часа, мм.
S - Снежный покров - Высота снежного покрова, см. При наведении курсора мыши на число - состояние снежного покрова и степень покрытия местности в баллах.